Find Starlink 30103

NORAD ID: 56290 Int'l Des: 2023-056 Owner: SPXS Country: US Constellation: starlink operational
LEOCIRCULAR

Current View

Loading 3D Globe...

About Starlink 30103

Starlink 30103 (NORAD 56290) is a starlink constellation satellite (v2 mini) launched Apr 19, 2023 by SPXS of US. It operates in LEO, CIRCULAR orbit with a mass of 730.00 kg.

About Starlink 30103

Description loading...

Upcoming Passes

Passes for default location (London). Set your location on the main map for personalized predictions.

Altitude History

Loading altitude history...

Two-Line Element Set

1 56290U 23056E 26170.52230850 -.00000331 00000-0 -25064-5 0 9990
2 56290 43.0025 353.8508 0001511 275.4565 84.6114 15.27576137175610
Epoch: Jun 19, 2026 • Age: 14 hours

Current Status

Altitude 494.6 km
Velocity 7.62 km/s
Sub-Earth Point -41.23°S, 21.87°W
Launch Date Apr 19, 2023
Age 3.1 years
Type internet

Technical Details

Classification Payload
Mass 730.00 kg
Dry Mass 700.00 kg
Total Mass 730.00 kg
Length 0.30 m
Diameter 4.10 m
Span 29.00 m
Shape Box + pan
Manufacturer SPXS
Bus Type Starlink V2M
Phase Status In Orbit
Owner/State SPXS/US

Most Searched